OBJECT G
1 47315U 21002G 21028.49845205 .00001717 00000-0 84685-4 0 9996
2 47315 60.6871 94.8337 0011919 260.1935 99.7822 15.22663567 1596
OBJECT J
1 47317U 21002J 21019.43891341 -.00000243 00000-0 12602-5 0 9999
2 47317 60.6849 128.8110 0017380 287.3695 72.5476 15.20319036 198
OBJECT K
1 47318U 21002K 21028.51436359 .00001758 00000-0 91992-4 0 9992
2 47318 60.6886 94.9142 0016953 294.0093 65.9220 15.20390036 1575
ExoCube 2
1 47319U 21002L 21028.51112961 .00001469 00000-0 77949-4 0 9998
2 47319 60.6878 94.8989 0014017 293.7176 66.2441 15.20848800 1545
RadFxSat-2
1 47320U 21002M 21028.50910876 .00001945 00000-0 98469-4 0 9999
2 47320 60.6883 94.8894 0013353 289.0055 70.9586 15.21142273 1627
OBJECT N
1 47345U 21002N 21028.63656080 -.00000273 00000-0 00000 0 0 9997
2 47345 60.6869 94.3716 0014798 274.0402 85.9085 15.21706904 1346
/EX
1
0
SB KEPS @ AMSAT $ORB21028.N
2Line Orbital Elements 21028.AMSAT
HR AMSAT ORBITAL ELEMENTS FOR AMATEUR SATELLITES IN NASA FORMAT
FROM WA5QGD FORT WORTH,TX January 28, 2021
BID: ORB21028.N
DECODE 2-LINE ELSETS WITH THE FOLLOWING KEY:
1 AAAAAU 00 0 0 BBBBB.BBBBBBBB .CCCCCCCC 00000-0 00000-0 0 DDDZ
2 AAAAA EEE.EEEE FFF.FFFF GGGGGGG HHH.HHHH III.IIII JJ.JJJJJJJJKKKKKZ
KEY: A-CATALOGNUM B-EPOCHTIME C-DECAY D-ELSETNUM E-INCLINATION F-RAAN
G-ECCENTRICITY H-ARGPERIGEE I-MNANOM J-MNMOTION K-ORBITNUM Z-CHECKSUM
TO ALL RADIO AMATEURS BT
AO-07
1 07530U 74089B 21028.53085102 -.00000046 00000-0 -53581-5 0 9999
2 07530 101.8355 3.2875 0012041 291.9303 182.8694 12.53647116114190
UO-11
1 14781U 84021B 21028.48165635 .00000142 00000-0 23444-4 0 9995
2 14781 97.5900 35.2398 0008543 171.8535 188.2820 14.83241735965189
LO-19
1 20442U 90005G 21028.62896302 -.00000008 00000-0 13738-4 0 9990
2 20442 98.7232 342.9682 0011156 207.8362 152.2226 14.32974652620866
HUBBLE
1 20580U 90037B 21028.37329963 .00000646 00000-0 28237-4 0 9991
2 20580 28.4694 271.8853 0002628 357.4625 166.1342 15.09544764489913
MET-2/21
1 22782U 93055A 21028.54277372 .00000031 00000-0 15050-4 0 9992
2 22782 82.5471 54.9546 0021599 326.8632 144.2358 13.83831843384171
AO-27
1 22825U 93061C 21028.79991489 -.00000002 00000-0 17255-4 0 9994
2 22825 98.9240 42.9342 0009468 82.5036 277.7221 14.30104707426296
IO-26
1 22826U 93061D 21028.52352301 .00000010 00000-0 21828-4 0 9999
2 22826 98.9182 42.5733 0009942 72.0656 288.1608 14.30442372426222
FO-29
1 24278U 96046B 21028.47475179 -.00000045 00000-0 -11816-4 0 9997
2 24278 98.5832 114.9144 0350833 152.1124 209.9318 13.53102162207311
NOAA-15
1 25338U 98030A 21028.80845272 .00000034 00000-0 32842-4 0 9990
2 25338 98.6976 58.4740 0009823 332.3707 27.6950 14.26010607181346
GO-32
1 25397U 98043D 21028.41024251 -.00000012 00000-0 14213-4 0 9991
2 25397 98.7558 334.4702 0002216 109.9596 250.1821 14.23700090171568
ISS
1 25544U 98067A 21027.77992426 .00003336 00000-0 68893-4 0 9991
2 25544 51.6465 317.1909 0002399 302.6503 164.1536 15.48908950266831
NO-44
1 26931U 01043C 21028.42582623 -.00000001 00000-0 31438-4 0 9999
2 26931 67.0513 281.8170 0007410 271.0533 88.9719 14.30604189 9215
SO-50
1 27607U 02058C 21028.43038987 .00000059 00000-0 28773-4 0 9997
2 27607 64.5557 46.5053 0029445 82.6426 277.8021 14.75706409973897
CO-55
1 27844U 03031E 21028.76433705 .00000058 00000-0 45474-4 0 9991
2 27844 98.6817 39.0846 0010791 120.4909 239.7336 14.22284762912169
CO-57
1 27848U 03031J 21028.50501413 .00000049 00000-0 41818-4 0 9997
2 27848 98.6878 39.3975 0010548 133.0486 227.1576 14.21865149911929
RS-22
1 27939U 03042A 21028.75862345 .00000202 00000-0 44868-4 0 9990
2 27939 98.1172 167.0237 0012841 7.9876 352.1535 14.66938107927040
NOAA-18
1 28654U 05018A 21028.55489568 .00000092 00000-0 74164-4 0 9999
2 28654 99.0144 92.7453 0013505 319.4189 40.5975 14.12576715808693
CO-58
1 28895U 05043F 21028.85106061 .00000163 00000-0 40084-4 0 9994
2 28895 98.0367 165.3290 0015527 291.5587 68.3961 14.63858554813813
Falconsat-3
1 30776U 07006E 21028.40950327 .00005144 00000-0 12926-3 0 9996
2 30776 35.4340 279.3571 0001513 33.0837 326.9985 15.39417596771504
CO-65
1 32785U 08021C 21028.52440009 .00000349 00000-0 43025-4 0 9997
2 32785 97.5959 12.9336 0014468 105.3350 254.9467 14.88620232691352
AAUSAT2
1 32788U 08021F 21028.51395201 .00000542 00000-0 54048-4 0 9994
2 32788 97.4983 29.1128 0012338 26.4474 333.7375 14.95364661692943
DO-64
1 32789U 08021G 21028.53890580 .00001907 00000-0 12627-3 0 9999
2 32789 97.3931 69.2160 0010400 261.7352 98.2698 15.08433931695737
CO-66
1 32791U 08021J 21028.53529882 .00000524 00000-0 57904-4 0 9998
2 32791 97.5585 18.9768 0014707 74.2998 285.9842 14.91260027691927
RS-30
1 32953U 08025A 21028.75039556 .00000028 00000-0 12906-3 0 9991
2 32953 82.5054 137.8228 0018447 281.1191 78.7818 12.43099630575627
PRISM
1 33493U 09002B 21028.41349954 .00001528 00000-0 13669-3 0 9999
2 33493 98.1712 344.3885 0015678 35.5288 324.6973 14.97398652653366
NOAA-19
1 33591U 09005A 21028.78853444 -.00000000 00000-0 25275-4 0 9997
2 33591 99.1925 45.9660 0014283 160.8266 199.3445 14.12450280617203
TISAT-1
1 36799U 10035E 21028.45514553 .00000765 00000-0 82358-4 0 9996
2 36799 98.2025 213.6066 0011290 316.9308 43.1025 14.91584000572460
JUGNU
1 37839U 11058B 21028.33940032 .00000320 00000-0 29048-4 0 9994
2 37839 19.9629 358.9474 0018785 348.2207 162.9878 14.12701702480629
SRMSAT
1 37841U 11058D 21028.52822538 .00000280 00000-0 86257-5 0 9999
2 37841 19.9731 66.7812 0011764 195.6903 316.5842 14.10683609479936
AO-71
1 37854U 11061E 21028.54574641 .00002281 00000-0 11924-3 0 9998
2 37854 101.7115 242.3447 0155957 112.1634 249.6213 15.08106454505394
HRBE
1 37855U 11061F 21028.83605196 .00001896 00000-0 98848-4 0 9993
2 37855 101.7256 239.8329 0168492 125.7716 235.9295 15.07142297505617
HORYU-2
1 38340U 12025D 21028.42777335 .00000263 00000-0 46056-4 0 9995
2 38340 98.2520 93.0570 0012268 47.9848 312.2403 14.75967130457733
RS-40
1 38735U 12041C 21028.73642774 .00000021 00000-0 77522-4 0 9997
2 38735 82.4755 220.1848 0017854 31.8198 328.3956 12.42581737385832
BEESAT-3
1 39135U 13015F 21028.74969481 .00001492 00000-0 80640-4 0 9990
2 39135 64.8668 293.4974 0015334 205.2130 154.8250 15.18867391429816
BEESAT-2
1 39136U 13015G 21028.49229625 .00001926 00000-0 10244-3 0 9996
2 39136 64.8741 300.1529 0028652 262.3274 97.4599 15.18248723429260
ZACUBE-1
1 39417U 13066B 21028.50278823 .00000335 00000-0 48260-4 0 9993
2 39417 97.5805 20.1893 0057228 259.7884 99.6873 14.81417677388355
TRITON-1
1 39427U 13066M 21028.80911480 .00000302 00000-0 55430-4 0 9991
2 39427 97.7583 343.6196 0114917 77.5334 283.8702 14.68139888384922
GOMX-1
1 39430U 13066Q 21028.74999600 .00000150 00000-0 36206-4 0 9999
2 39430 97.8091 319.8835 0150235 194.4294 165.2604 14.59526198382660
LO-74
1 39440U 13066AA 21028.48052898 .00000431 00000-0 66566-4 0 9994
2 39440 97.6585 4.8870 0079281 330.6960 28.9815 14.76151034385778
AO-73
1 39444U 13066AE 21028.50407603 .00000424 00000-0 58143-4 0 9993
2 39444 97.5724 22.5206 0056353 250.6447 108.8669 14.82303543386702
SPROUT
1 39770U 14029E 21028.76809635 .00000931 00000-0 10708-3 0 9991
2 39770 97.9068 140.3040 0008015 312.6645 47.3890 14.88148272362568
